[[{"header":{"parameterUnit":"m.s-1","parameterCategory":1,"la1":30.2991,"la2":30.254,"lo1":-89.0895,"lo2":-89.0444,"dy":0.0017,"dx":0.0017,"nx":28,"ny":28,"refTime":"2024-10-07T09:00:00:Z","depth":0,"parameterNumber":2,"parameterNumberName":"U-component_of_WINDS"},"data":[0,0,0,0,0,0,0,0,0,0,0,0,0,0,0,0,0,0,0,0,0,0,0,0,0,0,0,0,0,0,0,0,0,0,0,0,0,0,0,0,0,0,0,0,0,0,0,0,0,0,0,0,0,0,0,0,0,0,-0.0508,-0.0508,0,-0.0536,-0.0536,-0.0537,-0.0535,-0.0535,-0.0534,-0.0534,-0.0563,-0.0565,-0.0566,0,0,0,0,0,0,0,0,0,0,0,0,0,-0.0453,-0.0454,-0.0508,-0.0508,-0.0509,-0.0536,-0.0536,-0.0537,-0.0535,-0.0535,-0.0534,-0.0534,-0.0563,-0.0564,-0.0566,0,0,0,0,0,0,0,0,0,0,0,0,0,-0.0478,-0.0454,-0.0508,-0.0511,-0.0512,-0.0536,-0.0536,-0.0537,-0.0535,-0.0534,-0.0534,-0.0533,-0.0563,-0.0564,-0.0566,-0.0589,0,0,-0.0572,-0.0572,0,0,0,0,0,0,0,0,-0.0477,-0.0481,-0.051,-0.0511,-0.0512,-0.0531,-0.0528,-0.0555,-0.0535,-0.0526,-0.0534,-0.0533,-0.0553,-0.0556,-0.0563,-0.0591,-0.0592,-0.0572,-0.0573,-0.0573,-0.0574,0,0,0,0,0,0,0,-0.0475,-0.0479,-0.0519,-0.0511,-0.0512,-0.0511,-0.0514,-0.0533,-0.0543,-0.0527,-0.0527,-0.053,-0.0554,-0.0561,-0.0563,-0.0593,-0.0572,-0.0573,-0.0574,-0.0575,-0.0641,-0.0641,0,0,0,0,0,0,-0.0473,-0.0478,-0.0518,-0.052,-0.0492,-0.0513,-0.0516,-0.0526,-0.0543,-0.0545,-0.0531,-0.053,-0.0558,-0.0561,-0.0564,-0.0592,-0.0573,-0.0575,-0.0576,-0.064,-0.0641,-0.0642,0,0,0,0,0,0,-0.0472,-0.0476,-0.0517,-0.0499,-0.0504,-0.0514,-0.0525,-0.0527,-0.0534,-0.0546,-0.0547,-0.0536,-0.0558,-0.0562,-0.0583,-0.0593,-0.0576,-0.0578,-0.0639,-0.064,-0.0641,-0.0649,0,0,0,0,0,0,-0.047,-0.0476,-0.0485,-0.0499,-0.0505,-0.0535,-0.0526,-0.0528,-0.0537,-0.0536,-0.0551,-0.0553,-0.0558,-0.058,-0.0585,-0.0596,-0.0579,-0.0638,-0.064,-0.0641,-0.0648,-0.065,-0.0652,0,0,0,0,0,-0.0468,-0.0487,-0.0486,-0.049,-0.0517,-0.0536,-0.0539,-0.0544,-0.0538,-0.0547,-0.0554,-0.0553,-0.0591,-0.0583,-0.0587,-0.0599,-0.0638,-0.0639,-0.0641,-0.0647,-0.065,-0.0652,0,0,0,0,0,0,-0.0474,-0.0488,-0.0488,-0.0511,-0.0522,-0.0536,-0.0547,-0.0547,-0.056,-0.0559,-0.0564,-0.0568,-0.0589,-0.0596,-0.0586,-0.0622,-0.0614,-0.0616,-0.0617,-0.062,-0.0622,-0.062,-0.058,0,0,0,0,0,-0.0478,-0.0492,-0.0504,-0.0524,-0.053,-0.0537,-0.0546,-0.0548,-0.056,-0.0565,-0.0574,-0.0586,-0.0601,-0.061,-0.0625,-0.0649,-0.0652,-0.0659,-0.0661,-0.0663,-0.0665,-0.0678,-0.0681,-0.0647,-0.0647,-0.0647,0,0,-0.0487,-0.0496,-0.0505,-0.0525,-0.0534,-0.0549,-0.0542,-0.0558,-0.0569,-0.0568,-0.0588,-0.0595,-0.0609,-0.0631,-0.0641,-0.0638,-0.0675,-0.0665,-0.0666,-0.0668,-0.068,-0.0683,-0.0686,-0.0648,-0.0648,-0.0647,0,0,-0.051,-0.0519,-0.0536,-0.0544,-0.0558,-0.0563,-0.0567,-0.058,-0.0584,-0.0605,-0.0604,-0.0617,-0.0643,-0.0652,-0.066,-0.0686,-0.0685,-0.069,-0.0702,-0.0714,-0.0717,-0.0719,-0.0728,-0.0731,-0.0692,-0.0692,-0.0692,0,-0.0519,-0.0541,-0.0545,-0.0561,-0.0569,-0.0568,-0.0586,-0.0594,-0.0611,-0.0618,-0.0613,-0.0644,-0.0653,-0.0678,-0.0684,-0.069,-0.0695,-0.0689,-0.0716,-0.0718,-0.0721,-0.0729,-0.0733,-0.0693,-0.0693,-0.0693,-0.0693,0,-0.0552,-0.0567,-0.0579,-0.0595,-0.0605,-0.0622,-0.0628,-0.0637,-0.0638,-0.0644,-0.0664,-0.0675,-0.0691,-0.0697,-0.0698,-0.0721,-0.0718,-0.0715,-0.0707,-0.0724,-0.0733,-0.0736,-0.0694,-0.0693,-0.0693,-0.0693,0,0,-0.0581,-0.0598,-0.0602,-0.0609,-0.0623,-0.0635,-0.0651,-0.0666,-0.0674,-0.0686,-0.07,-0.0721,-0.0717,-0.0726,-0.0729,-0.0739,-0.0758,-0.0734,-0.0735,-0.0738,-0.0784,-0.0787,-0.0791,-0.0757,-0.0758,-0.0759,-0.0783,0,-0.0605,-0.0634,-0.0637,-0.0663,-0.0676,-0.0675,-0.0689,-0.0699,-0.0704,-0.0717,-0.0722,-0.0737,-0.0731,-0.0737,-0.0747,-0.0754,-0.0768,-0.0752,-0.077,-0.0771,-0.0767,-0.0795,-0.0798,-0.0821,-0.0786,-0.0787,-0.0787,0,-0.0638,-0.065,-0.0677,-0.0688,-0.0694,-0.0707,-0.0721,-0.0733,-0.0744,-0.0747,-0.0756,-0.0757,-0.0773,-0.0764,-0.0787,-0.0776,-0.0783,-0.0788,-0.0789,-0.0791,-0.078,-0.0798,-0.0828,-0.0831,-0.0792,-0.0792,-0.0791,0,-0.0657,-0.068,-0.0698,-0.0704,-0.0718,-0.0727,-0.0733,-0.0743,-0.0752,-0.0764,-0.0769,-0.0783,-0.0791,-0.0801,-0.0806,-0.0798,-0.0828,-0.0819,-0.0831,-0.0831,-0.0838,-0.0838,-0.087,-0.0842,-0.0842,-0.0842,-0.0842,0,-0.0684,-0.0701,-0.0707,-0.0718,-0.0736,-0.0739,-0.0757,-0.0763,-0.0772,-0.0785,-0.0784,-0.0796,-0.0801,-0.0813,-0.0817,-0.0835,-0.0838,-0.0841,-0.0842,-0.0841,-0.0841,-0.0847,-0.0845,-0.0843,-0.0843,-0.0843,-0.0843,0,-0.0708,-0.0713,-0.0733,-0.0744,-0.0747,-0.076,-0.0769,-0.078,-0.0785,-0.0801,-0.0804,-0.0812,-0.0826,-0.0831,-0.0849,-0.0851,-0.0872,-0.0872,-0.0868,-0.0869,-0.088,-0.0879,-0.0917,-0.0922,-0.0892,-0.0892,-0.0892,0,-0.0726,-0.0738,-0.075,-0.0758,-0.0764,-0.0778,-0.0786,-0.0789,-0.0798,-0.0811,-0.0821,-0.0835,-0.0846,-0.087,-0.0877,-0.089,-0.089,-0.0902,-0.0892,-0.0891,-0.089,-0.0889,-0.0891,-0.0904,-0.0905,-0.0905,-0.0905,0,-0.0756,-0.0758,-0.077,-0.0783,-0.0793,-0.0803,-0.0813,-0.082,-0.0824,-0.0834,-0.0848,-0.0857,-0.0875,-0.0889,-0.0903,-0.0909,-0.0908,-0.0908,-0.0912,-0.0912,-0.0909,-0.091,-0.0874,-0.0908,-0.0907,-0.0907,-0.0907,-0.0907,-0.0778,-0.0788,-0.0798,-0.0812,-0.0819,-0.0828,-0.0839,-0.0844,-0.0856,-0.0871,-0.0871,-0.0887,-0.0897,-0.0915,-0.0922,-0.0934,-0.0931,-0.0936,-0.0937,-0.0938,-0.0939,-0.0907,-0.0936,-0.0936,-0.0936,-0.0936,-0.0936,0,-0.0808,-0.0814,-0.0826,-0.084,-0.085,-0.0847,-0.0858,-0.0867,-0.088,-0.0889,-0.09,-0.0917,-0.093,-0.0938,-0.0951,-0.0959,-0.0959,-0.0963,-0.0962,-0.0964,-0.0941,-0.0937,-0.0963,-0.0963,-0.0963,-0.0963,-0.0963,-0.0963,-0.0825,-0.0843,-0.0845,-0.0867,-0.0873,-0.0888,-0.0894,-0.0902,-0.0909,-0.0927,-0.0938,-0.0942,-0.0951,-0.0965,-0.0977,-0.0978,-0.0983,-0.0987,-0.0989,-0.0968,-0.0965,-0.0963,-0.0959,-0.0988,-0.0988,-0.101,-0.101,-0.101]},{"header":{"parameterUnit":"m.s-1","parameterCategory":1,"la1":30.2991,"la2":30.254,"lo1":-89.0895,"lo2":-89.0444,"dy":0.0017,"dx":0.0017,"nx":28,"ny":28,"refTime":"2024-10-07T09:00:00:Z","depth":0,"parameterNumber":3,"parameterNumberName":"V-component_of_WINDS"},"data":[0,0,0,0,0,0,0,0,0,0,0,0,0,0,0,0,0,0,0,0,0,0,0,0,0,0,0,0,0,0,0,0,0,0,0,0,0,0,0,0,0,0,0,0,0,0,0,0,0,0,0,0,0,0,0,0,0,0,-4.3592,-4.3593,0,-4.364,-4.3641,-4.3641,-4.3604,-4.3602,-4.3601,-4.3599,-4.3642,-4.3645,-4.3648,0,0,0,0,0,0,0,0,0,0,0,0,0,-4.3463,-4.3466,-4.3592,-4.3593,-4.3594,-4.364,-4.3641,-4.3642,-4.3604,-4.3602,-4.36,-4.3599,-4.3642,-4.3645,-4.3648,0,0,0,0,0,0,0,0,0,0,0,0,0,-4.3516,-4.3467,-4.3592,-4.3581,-4.358,-4.364,-4.3641,-4.3642,-4.3605,-4.3602,-4.36,-4.3598,-4.3641,-4.3644,-4.3648,-4.372,0,0,-4.366,-4.3662,0,0,0,0,0,0,0,0,-4.3513,-4.3521,-4.3582,-4.3582,-4.3581,-4.3614,-4.3611,-4.3668,-4.3605,-4.3595,-4.3599,-4.3597,-4.3634,-4.3639,-4.3653,-4.3722,-4.3724,-4.3661,-4.3663,-4.3665,-4.3666,0,0,0,0,0,0,0,-4.3509,-4.3518,-4.3611,-4.3583,-4.3582,-4.3571,-4.3576,-4.3622,-4.3627,-4.3596,-4.3593,-4.36,-4.3634,-4.3649,-4.3653,-4.3725,-4.3661,-4.3664,-4.3666,-4.3668,-4.3855,-4.3858,0,0,0,0,0,0,-4.3508,-4.3516,-4.361,-4.3613,-4.3541,-4.3576,-4.3581,-4.3606,-4.3627,-4.3628,-4.3602,-4.3598,-4.3643,-4.3649,-4.3655,-4.374,-4.3665,-4.3668,-4.3671,-4.3853,-4.3856,-4.3859,0,0,0,0,0,0,-4.3505,-4.3516,-4.3608,-4.3564,-4.3574,-4.3581,-4.3608,-4.3608,-4.3623,-4.3631,-4.3632,-4.3617,-4.3642,-4.3649,-4.3705,-4.3741,-4.367,-4.3674,-4.385,-4.3854,-4.3857,-4.3912,0,0,0,0,0,0,-4.3501,-4.3516,-4.3544,-4.3565,-4.3577,-4.3658,-4.3611,-4.3611,-4.3631,-4.3626,-4.3645,-4.3646,-4.3641,-4.3699,-4.3709,-4.3745,-4.3677,-4.3846,-4.3851,-4.3856,-4.3907,-4.3917,-4.3926,0,0,0,0,0,-4.3497,-4.3556,-4.3546,-4.3557,-4.3613,-4.3661,-4.3667,-4.3661,-4.3634,-4.3662,-4.3667,-4.3646,-4.3736,-4.3705,-4.3715,-4.3754,-4.3844,-4.385,-4.3856,-4.3902,-4.3915,-4.3926,0,0,0,0,0,0,-4.3537,-4.3559,-4.3547,-4.3615,-4.3637,-4.3654,-4.3689,-4.3675,-4.3703,-4.3697,-4.3686,-4.3691,-4.3749,-4.3757,-4.3722,-4.3825,-4.3785,-4.3794,-4.3817,-4.383,-4.3839,-4.3835,-4.368,0,0,0,0,0,-4.3555,-4.3594,-4.3609,-4.3668,-4.3679,-4.3683,-4.3703,-4.3697,-4.3718,-4.3726,-4.3735,-4.3755,-4.3787,-4.3809,-4.3839,-4.3908,-4.3911,-4.394,-4.395,-4.3957,-4.3964,-4.4001,-4.4014,-4.3878,-4.3878,-4.3878,0,0,-4.359,-4.3606,-4.3631,-4.3676,-4.3692,-4.3731,-4.369,-4.3733,-4.3761,-4.3731,-4.3785,-4.3793,-4.3813,-4.3876,-4.3904,-4.3884,-4.4003,-4.3965,-4.3971,-4.3974,-4.4008,-4.4021,-4.4033,-4.3882,-4.3881,-4.3881,0,0,-4.3674,-4.3691,-4.3741,-4.3759,-4.3784,-4.3787,-4.3799,-4.3819,-4.3824,-4.3878,-4.3857,-4.3889,-4.3946,-4.3962,-4.3977,-4.4069,-4.405,-4.4079,-4.4129,-4.4165,-4.4176,-4.4185,-4.4217,-4.4229,-4.4086,-4.4086,-4.4086,0,-4.3713,-4.3773,-4.3769,-4.3814,-4.3834,-4.3812,-4.3862,-4.3878,-4.3912,-4.3925,-4.3904,-4.3975,-4.3987,-4.4053,-4.4076,-4.409,-4.4102,-4.4076,-4.4175,-4.4184,-4.4193,-4.4224,-4.4236,-4.409,-4.4089,-4.4089,-4.4089,0,-4.3821,-4.3862,-4.39,-4.3936,-4.396,-4.4007,-4.4008,-4.4033,-4.4025,-4.4029,-4.4084,-4.4099,-4.4132,-4.4148,-4.4139,-4.4213,-4.42,-4.4177,-4.4137,-4.4209,-4.4238,-4.425,-4.4095,-4.4093,-4.4092,-4.4092,0,0,-4.3929,-4.3964,-4.3978,-4.3994,-4.4021,-4.4052,-4.4098,-4.4133,-4.4155,-4.4179,-4.4216,-4.4265,-4.4245,-4.4263,-4.4256,-4.4288,-4.4359,-4.4261,-4.4261,-4.4278,-4.444,-4.4457,-4.4471,-4.4347,-4.435,-4.4351,-4.4438,0,-4.4014,-4.4097,-4.4095,-4.4171,-4.4209,-4.419,-4.423,-4.425,-4.4255,-4.4287,-4.4291,-4.4327,-4.4297,-4.4308,-4.4339,-4.4344,-4.4391,-4.4338,-4.438,-4.4382,-4.4375,-4.4486,-4.4503,-4.4584,-4.445,-4.4451,-4.4453,0,-4.4124,-4.4155,-4.4235,-4.4258,-4.4274,-4.431,-4.4342,-4.4374,-4.4396,-4.4397,-4.4418,-4.4407,-4.4452,-4.4412,-4.4474,-4.4437,-4.4455,-4.446,-4.4463,-4.4466,-4.4421,-4.449,-4.461,-4.4622,-4.447,-4.4469,-4.4468,0,-4.4195,-4.4256,-4.4312,-4.4327,-4.4355,-4.4381,-4.4393,-4.4414,-4.4435,-4.4462,-4.4476,-4.4508,-4.4525,-4.4549,-4.4546,-4.4517,-4.4608,-4.4568,-4.461,-4.461,-4.4628,-4.4627,-4.4752,-4.4641,-4.4641,-4.4641,-4.4641,0,-4.4289,-4.4339,-4.4345,-4.4379,-4.4434,-4.4431,-4.4485,-4.4495,-4.4513,-4.4548,-4.4532,-4.4565,-4.4559,-4.4592,-4.4589,-4.464,-4.4648,-4.465,-4.4648,-4.4651,-4.465,-4.4661,-4.4655,-4.4644,-4.4644,-4.4643,-4.4642,0,-4.4377,-4.4383,-4.4443,-4.4466,-4.4473,-4.4512,-4.4531,-4.4563,-4.4567,-4.4612,-4.4622,-4.4628,-4.4666,-4.4666,-4.4707,-4.4706,-4.4768,-4.4761,-4.4762,-4.476,-4.4801,-4.4797,-4.4936,-4.4954,-4.4833,-4.4834,-4.4835,0,-4.4436,-4.4474,-4.4502,-4.4526,-4.4541,-4.4578,-4.4601,-4.4599,-4.4623,-4.4652,-4.4681,-4.4717,-4.4746,-4.4806,-4.4814,-4.4845,-4.4838,-4.4885,-4.4842,-4.4844,-4.4838,-4.4835,-4.4839,-4.4892,-4.4894,-4.4895,-4.4896,0,-4.454,-4.4542,-4.4577,-4.4613,-4.4641,-4.4669,-4.4694,-4.4713,-4.4714,-4.4742,-4.4781,-4.4804,-4.4848,-4.4884,-4.4915,-4.4926,-4.4911,-4.4909,-4.492,-4.4923,-4.4921,-4.4922,-4.4783,-4.4906,-4.4905,-4.4904,-4.4903,-4.4903,-4.4615,-4.4649,-4.4674,-4.4713,-4.4733,-4.4758,-4.4789,-4.4799,-4.4833,-4.487,-4.4867,-4.491,-4.4931,-4.4972,-4.4986,-4.5019,-4.5002,-4.5019,-4.5022,-4.5026,-4.5031,-4.4918,-4.5025,-4.5024,-4.5024,-4.5024,-4.5024,0,-4.4718,-4.4734,-4.4771,-4.4808,-4.4839,-4.4825,-4.4853,-4.4879,-4.4918,-4.4941,-4.497,-4.5015,-4.5051,-4.5062,-4.5095,-4.512,-4.5114,-4.5128,-4.5126,-4.5129,-4.5044,-4.5031,-4.5133,-4.5133,-4.5133,-4.5133,-4.5133,-4.5133,-4.4775,-4.4832,-4.4837,-4.4902,-4.4917,-4.4962,-4.4979,-4.5001,-4.5019,-4.5071,-4.5101,-4.5109,-4.5127,-4.5162,-4.5193,-4.5196,-4.5208,-4.5226,-4.5225,-4.5146,-4.5134,-4.5124,-4.5111,-4.5229,-4.5229,-4.5307,-4.5308,-4.5308]}]]